User: anonymous   Login
Location: Hepcat Sky Observatory
(29.9800°N, 95.6500°W)
Time: 11:58:31
(UTC-05:00)
Language:

SL-16 Debris - Orbit

View from above orbital plane
View from above orbital plane
View from above satellite
View from above satellite

Ground track
Ground track

The orbit data is extracted from the following two-line orbital elements,

1 26076U 99040E   16270.49001891  .00004806  00000-0  43265-3 0  9992
2 26076  28.4608  15.5259 4546343 130.9095 278.4912  6.43485368295651
Epoch (UTC): 26 September 2016 11:45:37
Eccentricity: 0.4546343
inclination: 28.4608°
perigee height: 280 km
apogee height: 11382 km
right ascension of ascending node: 15.5259°
argument of perigee: 130.9095°
revolutions per day: 6.43485368
mean anomaly at epoch: 278.4912°
orbit number at epoch: 29565

The dashed part of the orbit path shows where the satellite is in the earth's shadow,  

DLR